[[{"header":{"parameterUnit":"m.s-1","parameterCategory":1,"la1":30.2991,"la2":30.254,"lo1":-89.0895,"lo2":-89.0444,"dy":0.0017,"dx":0.0017,"nx":28,"ny":28,"refTime":"2024-03-26T03:00:00:Z","depth":0,"parameterNumber":2,"parameterNumberName":"U-component_of_WINDS"},"data":[0,0,0,0,0,0,0,0,0,0,0,0,0,0,0,0,0,0,0,0,0,0,0,0,0,0,0,0,0,0,0,0,0,0,0,0,0,0,0,0,0,0,0,0,0,0,0,0,0,0,0,0,0,0,0,0,0,0,-9.0,-9.0002,0,-9.025,-9.0252,-9.0255,-9.0301,-9.0299,-9.0297,-9.0295,-9.0543,-9.0551,-9.056,0,0,0,0,0,0,0,0,0,0,0,0,0,-8.9555,-8.9563,-8.9999,-9.0003,-9.0006,-9.0249,-9.0253,-9.0256,-9.0301,-9.0298,-9.0296,-9.0294,-9.054,-9.055,-9.056,0,0,0,0,0,0,0,0,0,0,0,0,0,-8.9771,-8.9566,-8.9999,-9.0058,-9.0065,-9.0248,-9.0253,-9.0257,-9.0301,-9.0298,-9.0295,-9.0293,-9.0537,-9.0549,-9.0562,-9.0701,0,0,-9.0601,-9.0606,0,0,0,0,0,0,0,0,-8.9758,-8.9787,-9.0046,-9.0054,-9.0063,-9.0241,-9.0187,-9.0406,-9.0302,-9.0212,-9.0295,-9.0291,-9.0444,-9.0465,-9.0518,-9.0713,-9.0724,-9.0602,-9.061,-9.0615,-9.0619,0,0,0,0,0,0,0,-8.9743,-8.9776,-9.0098,-9.005,-9.006,-9.007,-9.0097,-9.0229,-9.0342,-9.0219,-9.0223,-9.0253,-9.0448,-9.0505,-9.0524,-9.0727,-9.0601,-9.0613,-9.0621,-9.0626,-9.105,-9.1054,0,0,0,0,0,0,-8.9719,-8.9764,-9.009,-9.0106,-8.99,-9.008,-9.0111,-9.0187,-9.034,-9.0361,-9.0255,-9.0254,-9.0485,-9.0509,-9.0533,-9.0706,-9.0615,-9.0627,-9.0634,-9.1047,-9.1051,-9.1055,0,0,0,0,0,0,-8.9709,-8.9748,-9.008,-8.9936,-8.9979,-9.0091,-9.0176,-9.0193,-9.025,-9.0368,-9.0387,-9.0293,-9.0484,-9.0515,-9.066,-9.0716,-9.0633,-9.0644,-9.1042,-9.1048,-9.1053,-9.1054,0,0,0,0,0,0,-8.9696,-8.9744,-8.9799,-8.9937,-8.9987,-9.0204,-9.018,-9.02,-9.0273,-9.0274,-9.0408,-9.0427,-9.0484,-9.0641,-9.0672,-9.0732,-9.0654,-9.1038,-9.1045,-9.1051,-9.1049,-9.1059,-9.1067,0,0,0,0,0,-8.968,-8.9788,-8.9802,-8.9841,-9.0058,-9.0208,-9.0236,-9.03,-9.0278,-9.0333,-9.0409,-9.0423,-9.0705,-9.0655,-9.0691,-9.0755,-9.1034,-9.1043,-9.1051,-9.1045,-9.1057,-9.1067,0,0,0,0,0,0,-8.965,-8.9807,-8.9824,-8.998,-9.008,-9.0215,-9.0287,-9.031,-9.0417,-9.0413,-9.0487,-9.0517,-9.0658,-9.0721,-9.0663,-9.0899,-9.0868,-9.0884,-9.0851,-9.0863,-9.0872,-9.0852,-9.0665,0,0,0,0,0,-8.9662,-8.9772,-8.9902,-9.0027,-9.0077,-9.0174,-9.0241,-9.0283,-9.0389,-9.043,-9.0517,-9.0617,-9.0729,-9.08,-9.0909,-9.106,-9.1089,-9.1122,-9.1131,-9.1137,-9.1149,-9.1234,-9.1249,-9.1082,-9.1082,-9.1081,0,0,-8.9686,-8.9786,-8.985,-9.0024,-9.0106,-9.0217,-9.0209,-9.0326,-9.0408,-9.0447,-9.059,-9.0657,-9.0774,-9.0923,-9.0993,-9.098,-9.1203,-9.1148,-9.1152,-9.1161,-9.1244,-9.1259,-9.1273,-9.1087,-9.1086,-9.1085,0,0,-8.9788,-8.9875,-8.9988,-9.0073,-9.02,-9.0264,-9.0291,-9.0424,-9.047,-9.0616,-9.0648,-9.0746,-9.0936,-9.1019,-9.1085,-9.1222,-9.1238,-9.1255,-9.1299,-9.1381,-9.1394,-9.1406,-9.1453,-9.1469,-9.1267,-9.1267,-9.1267,0,-8.9801,-8.9971,-9.0043,-9.016,-9.0235,-9.028,-9.0394,-9.0472,-9.0627,-9.0676,-9.0662,-9.0903,-9.0985,-9.1153,-9.1187,-9.124,-9.1272,-9.1238,-9.1387,-9.14,-9.1412,-9.1457,-9.1475,-9.1268,-9.1268,-9.1268,-9.1268,0,-8.9981,-9.0099,-9.0175,-9.0327,-9.0411,-9.0526,-9.0613,-9.0689,-9.0725,-9.079,-9.0937,-9.1038,-9.1168,-9.1212,-9.1246,-9.1386,-9.1374,-9.1372,-9.1342,-9.1428,-9.1472,-9.149,-9.127,-9.1269,-9.1269,-9.1269,0,0,-9.0066,-9.026,-9.0286,-9.0356,-9.0501,-9.0592,-9.071,-9.084,-9.0903,-9.1009,-9.1108,-9.127,-9.127,-9.1346,-9.139,-9.1462,-9.1563,-9.1452,-9.1456,-9.1467,-9.1722,-9.172,-9.174,-9.1576,-9.158,-9.1583,-9.1711,0,-9.0184,-9.0396,-9.0466,-9.0642,-9.0751,-9.0797,-9.0899,-9.0998,-9.1062,-9.1163,-9.1234,-9.1347,-9.1339,-9.1385,-9.1459,-9.1535,-9.1614,-9.1527,-9.1666,-9.167,-9.1633,-9.1763,-9.1762,-9.1878,-9.1729,-9.1732,-9.1734,0,-9.0348,-9.046,-9.0648,-9.0781,-9.0829,-9.092,-9.1045,-9.1142,-9.1255,-9.1297,-9.1384,-9.1423,-9.1546,-9.1511,-9.1681,-9.162,-9.1681,-9.1728,-9.1734,-9.1747,-9.1705,-9.1778,-9.1917,-9.1933,-9.1763,-9.176,-9.1758,0,-9.0389,-9.0587,-9.0726,-9.0784,-9.0943,-9.1005,-9.1074,-9.1185,-9.1259,-9.1369,-9.1418,-9.1539,-9.1605,-9.1698,-9.1769,-9.1737,-9.1931,-9.1903,-9.1968,-9.1966,-9.2004,-9.2,-9.2152,-9.2047,-9.2047,-9.2047,-9.2046,0,-9.0512,-9.0624,-9.0747,-9.0831,-9.0959,-9.1037,-9.1161,-9.1231,-9.133,-9.1428,-9.1475,-9.1565,-9.1655,-9.1757,-9.1813,-9.1944,-9.1974,-9.201,-9.2023,-9.2004,-9.2,-9.2044,-9.2036,-9.2052,-9.205,-9.205,-9.2049,0,-9.0578,-9.0665,-9.0819,-9.0958,-9.0996,-9.1083,-9.1201,-9.1284,-9.1353,-9.1476,-9.1509,-9.1615,-9.1738,-9.1819,-9.1975,-9.2013,-9.2155,-9.2167,-9.2117,-9.2123,-9.2183,-9.2175,-9.2367,-9.2396,-9.2273,-9.2274,-9.2275,0,-9.0649,-9.0737,-9.0887,-9.0958,-9.1028,-9.114,-9.1218,-9.1299,-9.1377,-9.1514,-9.158,-9.1707,-9.1812,-9.2006,-9.2095,-9.2215,-9.2229,-9.2288,-9.2247,-9.2226,-9.2228,-9.2221,-9.223,-9.2293,-9.2294,-9.2295,-9.2296,0,-9.0766,-9.0805,-9.0916,-9.1043,-9.1135,-9.1238,-9.1341,-9.1395,-9.1494,-9.1579,-9.1707,-9.1789,-9.195,-9.2074,-9.2203,-9.2272,-9.23,-9.2309,-9.233,-9.2311,-9.2277,-9.2295,-9.2133,-9.2303,-9.2303,-9.2302,-9.2302,-9.2301,-9.0836,-9.0917,-9.1035,-9.1158,-9.1245,-9.134,-9.1426,-9.1506,-9.1615,-9.1754,-9.1795,-9.1928,-9.204,-9.2216,-9.2287,-9.2391,-9.2384,-9.2415,-9.2422,-9.2428,-9.2428,-9.2263,-9.2415,-9.2415,-9.2414,-9.2414,-9.2414,0,-9.0953,-9.1033,-9.1145,-9.1289,-9.1385,-9.1408,-9.1523,-9.1601,-9.1719,-9.1822,-9.1926,-9.2073,-9.2194,-9.2295,-9.242,-9.2484,-9.25,-9.2514,-9.2508,-9.2524,-9.2427,-9.2396,-9.2499,-9.2499,-9.2499,-9.2499,-9.2499,-9.2498,-9.1026,-9.1164,-9.1218,-9.1399,-9.1477,-9.161,-9.1674,-9.1762,-9.1845,-9.2008,-9.211,-9.2176,-9.2278,-9.2412,-9.2524,-9.2551,-9.2593,-9.2604,-9.2633,-9.254,-9.253,-9.2521,-9.2492,-9.2613,-9.2614,-9.2721,-9.2722,-9.2722]},{"header":{"parameterUnit":"m.s-1","parameterCategory":1,"la1":30.2991,"la2":30.254,"lo1":-89.0895,"lo2":-89.0444,"dy":0.0017,"dx":0.0017,"nx":28,"ny":28,"refTime":"2024-03-26T03:00:00:Z","depth":0,"parameterNumber":3,"parameterNumberName":"V-component_of_WINDS"},"data":[0,0,0,0,0,0,0,0,0,0,0,0,0,0,0,0,0,0,0,0,0,0,0,0,0,0,0,0,0,0,0,0,0,0,0,0,0,0,0,0,0,0,0,0,0,0,0,0,0,0,0,0,0,0,0,0,0,0,7.8157,7.8158,0,7.8256,7.8257,7.8258,7.8248,7.8246,7.8245,7.8243,7.8339,7.8343,7.8347,0,0,0,0,0,0,0,0,0,0,0,0,0,7.7957,7.7961,7.8157,7.8158,7.816,7.8255,7.8257,7.8258,7.8248,7.8246,7.8244,7.8242,7.8338,7.8342,7.8347,0,0,0,0,0,0,0,0,0,0,0,0,0,7.8049,7.7962,7.8157,7.8166,7.8168,7.8255,7.8257,7.8258,7.8248,7.8246,7.8244,7.8242,7.8336,7.8342,7.8348,7.8431,0,0,7.8366,7.8369,0,0,0,0,0,0,0,0,7.8043,7.8056,7.8164,7.8166,7.8168,7.8237,7.8221,7.8316,7.8249,7.8218,7.8243,7.824,7.8307,7.8315,7.8338,7.8435,7.8439,7.8367,7.837,7.8373,7.8374,0,0,0,0,0,0,0,7.8037,7.8052,7.8196,7.8165,7.8168,7.8164,7.8175,7.8239,7.8274,7.822,7.822,7.8232,7.8307,7.8332,7.834,7.8441,7.8366,7.8372,7.8375,7.8378,7.8613,7.8616,0,0,0,0,0,0,7.8029,7.8046,7.8193,7.8199,7.8099,7.817,7.8182,7.8217,7.8273,7.8279,7.8234,7.8231,7.8323,7.8333,7.8344,7.8447,7.8373,7.8378,7.8382,7.8611,7.8614,7.8617,0,0,0,0,0,0,7.8025,7.8042,7.8189,7.8123,7.8141,7.8176,7.8216,7.822,7.8246,7.8283,7.8289,7.8253,7.8322,7.8335,7.841,7.845,7.8381,7.8386,7.8607,7.8612,7.8615,7.8652,0,0,0,0,0,0,7.8019,7.8041,7.8073,7.8124,7.8145,7.8255,7.8218,7.8224,7.8256,7.8254,7.8303,7.8309,7.8321,7.8401,7.8416,7.8457,7.8391,7.8604,7.8609,7.8614,7.8647,7.8657,7.8665,0,0,0,0,0,7.8012,7.8078,7.8075,7.8093,7.8186,7.8257,7.8269,7.8283,7.826,7.8292,7.8317,7.8307,7.8443,7.8409,7.8426,7.8469,7.8602,7.8608,7.8614,7.8643,7.8655,7.8665,0,0,0,0,0,0,7.8029,7.8084,7.8082,7.8166,7.8207,7.8255,7.8297,7.8294,7.8341,7.8337,7.8351,7.8362,7.8438,7.846,7.8422,7.8553,7.8519,7.8529,7.8536,7.8547,7.8556,7.8549,7.8396,0,0,0,0,0,7.8043,7.8097,7.8142,7.8212,7.8233,7.8261,7.8292,7.83,7.8343,7.8359,7.8389,7.843,7.8482,7.8515,7.8565,7.865,7.8662,7.8688,7.8697,7.8704,7.8712,7.8762,7.8775,7.8636,7.8636,7.8636,0,0,7.8071,7.8108,7.8141,7.8216,7.8249,7.8304,7.8276,7.8334,7.8376,7.8368,7.8442,7.8465,7.8511,7.8592,7.8629,7.8613,7.8753,7.8711,7.8717,7.8722,7.8769,7.8782,7.8794,7.8641,7.864,7.8639,0,0,7.8152,7.8184,7.8248,7.8282,7.8333,7.8352,7.8367,7.8417,7.8433,7.8507,7.8503,7.8552,7.864,7.8674,7.8703,7.88,7.8793,7.8815,7.8861,7.8909,7.892,7.8929,7.8966,7.8979,7.8823,7.8823,7.8823,0,7.818,7.8265,7.828,7.8342,7.8375,7.8373,7.8437,7.8469,7.8533,7.8556,7.8537,7.8651,7.8681,7.8772,7.8796,7.8818,7.8837,7.881,7.8917,7.8927,7.8936,7.8972,7.8985,7.8826,7.8825,7.8825,7.8825,0,7.8299,7.8358,7.8402,7.8468,7.8506,7.8568,7.8593,7.863,7.8634,7.8655,7.8732,7.8769,7.8828,7.8849,7.8853,7.8941,7.893,7.8914,7.888,7.8952,7.8985,7.8999,7.8829,7.8828,7.8827,7.8827,0,0,7.8392,7.8467,7.8484,7.8514,7.8571,7.8617,7.8679,7.8739,7.8771,7.8815,7.8869,7.8945,7.8932,7.8964,7.8972,7.9014,7.9091,7.8993,7.8994,7.9012,7.9193,7.9207,7.9222,7.9087,7.909,7.9092,7.919,0,7.8481,7.8594,7.8611,7.871,7.8766,7.8765,7.8819,7.886,7.8882,7.8931,7.8954,7.9009,7.8986,7.9006,7.9047,7.9073,7.9128,7.9066,7.9137,7.914,7.9128,7.9239,7.9253,7.9344,7.9203,7.9205,7.9207,0,7.8599,7.865,7.8756,7.8808,7.8832,7.8881,7.8939,7.8986,7.9032,7.9045,7.9083,7.9086,7.9151,7.9114,7.9204,7.9161,7.9191,7.9208,7.9212,7.9221,7.9179,7.9252,7.9373,7.9388,7.9227,7.9225,7.9224,0,7.866,7.8755,7.8831,7.8857,7.8919,7.8954,7.8981,7.9025,7.9061,7.911,7.9134,7.9189,7.9219,7.9262,7.928,7.9251,7.937,7.9333,7.9383,7.9383,7.9409,7.9407,7.9538,7.9425,7.9425,7.9424,7.9424,0,7.8759,7.8824,7.886,7.8907,7.8981,7.8999,7.9071,7.9096,7.9136,7.9188,7.9189,7.9238,7.9258,7.9309,7.9323,7.9397,7.941,7.9423,7.9426,7.9424,7.9423,7.9445,7.944,7.9428,7.9427,7.9427,7.9426,0,7.884,7.8867,7.895,7.9003,7.9018,7.907,7.9115,7.9161,7.9182,7.9248,7.9265,7.9298,7.9359,7.9381,7.9454,7.9464,7.955,7.9547,7.9536,7.9537,7.9586,7.9582,7.9738,7.976,7.963,7.9631,7.9632,0,7.8902,7.8953,7.9013,7.9049,7.9078,7.9135,7.9173,7.9192,7.9231,7.9289,7.9328,7.9389,7.9439,7.9537,7.9567,7.9623,7.9623,7.9674,7.9631,7.9629,7.9627,7.9625,7.9631,7.9682,7.9683,7.9684,7.9685,0,7.9011,7.9022,7.9077,7.9137,7.9182,7.923,7.9275,7.9304,7.9331,7.9374,7.9438,7.9477,7.9554,7.9615,7.9674,7.97,7.9698,7.9698,7.9713,7.9713,7.9705,7.9712,7.9559,7.9695,7.9694,7.9693,7.9693,7.9692,7.9086,7.9133,7.9183,7.9244,7.9281,7.9325,7.9372,7.94,7.9454,7.952,7.9528,7.9597,7.9643,7.9722,7.9752,7.9805,7.9792,7.9812,7.9818,7.9824,7.9829,7.9695,7.9816,7.9815,7.9815,7.9815,7.9815,0,7.9197,7.923,7.9286,7.9353,7.9401,7.9396,7.9447,7.9488,7.9549,7.9594,7.9644,7.9718,7.9778,7.9814,7.9874,7.991,7.9911,7.9926,7.9924,7.9931,7.9836,7.9819,7.9924,7.9924,7.9924,7.9924,7.9924,7.9924,7.9261,7.934,7.9358,7.9456,7.9487,7.9557,7.9587,7.9627,7.9663,7.9747,7.9798,7.9821,7.9862,7.9926,7.9981,7.999,8.0013,8.0029,8.0037,7.9948,7.9937,7.9926,7.991,8.0033,8.0034,8.0128,8.0128,8.0129]}]]